Flag for Canada Weather past 2 weeks in Prince Rupert, British Columbia, Canada

Now
48 °F

Broken clouds.


Feels Like: 46 °F
Forecast: 39 / 47 °F
Wind: 6 mph from South

Location: Prince Rupert

Current Time: Mar 31, 2015 at 7:00:33 PM

Latest Report: Mar 31, 2015 at 6:00 PM


Visibility: 9 mi

Pressure: 29.93 "Hg

Humidity: 71%

Dew point: 39 °F

Location of Prince RupertLocation

Historic Weather in Prince Rupert — Graph

°F

Prince Rupert temperature yesterday

Maximum temperature yesterday: 52 °F (at 11:00 AM)
Minimum temperature yesterday: 43 °F (at 12:00 AM)
Average temperature yesterday: 47 °F

Past Weeks' High & Low Weather Summary

 TemperatureHumidityPressure
High55 °F (Mar 22, 3:00 PM)100% (Mar 19, 5:00 AM)30.14 "Hg (Mar 19, 5:00 AM)
Low34 °F (Mar 17, 7:00 AM)38% (Mar 16, 6:00 PM)29.44 "Hg (Mar 30, 11:00 AM)
Average46 °F81%29.88 "Hg
* Reported Mar 16 6:00 PM — Mar 31 6:00 PM, Prince Rupert, Weather by CustomWeather, © 2015

Note: Actual official high and low records may vary slightly from our data, if they occured in-between our weather recording intervals... More about our weather records

Advertising

Prince Rupert weather history for previous 24 hours

 ConditionsComfort  
Time TempWeatherWind HumidityBarometerVisibility
6:00 PM
Tue, Mar 31
48 °FBroken clouds.6 mph71%29.93 "Hg9 mi
5:00 PM50 °FScattered clouds.10 mph71%29.93 "Hg9 mi
4:00 PM48 °FMostly cloudy.7 mph76%29.93 "Hg9 mi
3:00 PM46 °FBroken clouds.9 mph82%29.91 "Hg9 mi
2:03 PM45 °FPartly sunny.8 mph87%29.91 "Hg9 mi
1:00 PM46 °FScattered clouds.9 mph76%29.89 "Hg9 mi
12:46 PM46 °FBroken clouds.10 mph82%29.89 "Hg9 mi
12:00 PM46 °FSunny.10 mph82%29.88 "Hg9 mi
11:00 AM43 °FLight rain. Partly sunny.10 mph87%29.87 "Hg7 mi
10:00 AM41 °FPartly sunny.12 mph93%29.86 "Hg9 mi
9:46 AM41 °FCloudy.7 mph93%29.85 "Hg9 mi
9:04 AM41 °FLight rain. Partly sunny.9 mph93%29.84 "Hg9 mi
8:00 AM41 °FPartly cloudy.8 mph93%29.83 "Hg9 mi
7:50 AM41 °FMostly cloudy.9 mph93%29.83 "Hg9 mi
7:00 AM41 °FPassing clouds.8 mph93%29.82 "Hg9 mi
6:00 AM43 °FLight rain. Passing clouds.9 mph87%29.81 "Hg9 mi
5:59 AM43 °FLight rain. Passing clouds.9 mph87%29.81 "Hg9 mi
5:00 AM43 °FOvercast.8 mph87%29.79 "Hg9 mi
4:00 AM43 °FPartly cloudy.6 mph87%29.79 "Hg9 mi
3:00 AM43 °FPartly cloudy.7 mph87%29.78 "Hg9 mi
2:00 AM43 °FOvercast.7 mph93%29.78 "Hg9 mi
1:59 AM43 °FMostly cloudy.8 mph87%29.78 "Hg9 mi
1:00 AM45 °FLight rain. Mostly cloudy.6 mph81%29.77 "Hg9 mi
12:00 AM43 °FMostly cloudy.13 mph87%29.76 "Hg9 mi
11:04 PM
Mon, Mar 30
43 °FOvercast.16 mph93%29.73 "Hg9 mi
10:50 PM43 °FMostly cloudy.17 mph93%29.72 "Hg9 mi
10:02 PM45 °FLight rain. Fog.13 mph87%29.69 "Hg5 mi
9:00 PM45 °FLight rain. Fog.12 mph93%29.66 "Hg3 mi
8:59 PM45 °FRain. Fog.12 mph93%29.66 "Hg3 mi
8:00 PM46 °FLight rain. Mostly cloudy.13 mph87%29.65 "Hg9 mi
7:00 PM48 °FLight rain. Mostly cloudy.14 mph82%29.63 "Hg9 mi
Weather by CustomWeather, © 2015

See weather overviewHow to use our weather pages